Riverbend Golf Club, California, United States
Lat: 36.93N, Lon: 119.76W
Wx Zone: CAZ090
Local Info
Past Weather Observations for Today

NOTE: This archive is for the closest National Weather Service station to Riverbend Golf Club. Information may differ from the station used for current weather conditions.

Click here for Long-term Archive

Time Weather Temperature Dewpoint Humidity Pressure Winds Precip Visibility
22:53
Partly Cloudy
61°F / 16°C 45°F / 7°C 55% 30.04 in
(1017 mb)
Calm - 10SM
21:53
Clear
63°F / 17°C 46°F / 8°C 56% 30.06 in
(1018 mb)
SE 3.5 mph
(SE 6 kph)
- 10SM
20:53
Clear
64°F / 18°C 46°F / 8°C 52% 30.06 in
(1018 mb)
Calm - 10SM
19:53
Clear
66°F / 19°C 45°F / 7°C 46% 30.04 in
(1017 mb)
Calm - 10SM
18:53
Clear
72°F / 22°C 45°F / 7°C 38% 30.04 in
(1017 mb)
NW 3.5 mph
(NW 6 kph)
- 10SM
17:53
Partly Cloudy
72°F / 22°C 45°F / 7°C 38% 30.04 in
(1017 mb)
NW 4.6 mph
(NW 7 kph)
- 10SM
16:53
Mostly Cloudy
75°F / 24°C 43°F / 6°C 31% 30.01 in
(1016 mb)
NW 8.1 mph
(NW 13 kph)
- 10SM
15:53
Mostly Cloudy
77°F / 25°C 41°F / 5°C 28% 30.01 in
(1016 mb)
NW 5.8 mph
(NW 9 kph)
- 10SM
14:53
Mostly Cloudy
75°F / 24°C 39°F / 4°C 27% 30.04 in
(1017 mb)
Calm - 10SM
13:53
Mostly Cloudy
75°F / 24°C 39°F / 4°C 27% 30.04 in
(1017 mb)
Calm - 10SM
12:53
Mostly Cloudy
73°F / 23°C 39°F / 4°C 29% 30.04 in
(1017 mb)
Variable 3.5 mph
(Variable 6 kph)
- 10SM
11:53
Mostly Cloudy
72°F / 22°C 45°F / 7°C 38% 30.06 in
(1018 mb)
Variable 3.5 mph
(Variable 6 kph)
- 10SM
10:53
Mostly Cloudy
68°F / 20°C 45°F / 7°C 43% 30.06 in
(1018 mb)
Calm - 10SM
09:53
Mostly Cloudy
66°F / 19°C 45°F / 7°C 46% 30.06 in
(1018 mb)
SSE 8.1 mph
(SSE 13 kph)
- 10SM
08:53
Mostly Cloudy
61°F / 16°C 45°F / 7°C 55% 30.06 in
(1018 mb)
SE 4.6 mph
(SE 7 kph)
- 10SM
07:53
Overcast
57°F / 14°C 45°F / 7°C 63% 30.06 in
(1018 mb)
E 4.6 mph
(E 7 kph)
- 10SM
06:53
Mostly Cloudy
54°F / 12°C 45°F / 7°C 72% 30.06 in
(1018 mb)
Calm - 10SM
05:53
Partly Cloudy
52°F / 11°C 43°F / 6°C 72% 30.04 in
(1017 mb)
Calm - 10SM
04:53
Clear
54°F / 12°C 43°F / 6°C 67% 30.04 in
(1017 mb)
Calm - 10SM
03:53
Clear
54°F / 12°C 43°F / 6°C 67% 30.04 in
(1017 mb)
Calm - 10SM
02:53
Clear
54°F / 12°C 43°F / 6°C 67% 30.01 in
(1016 mb)
Calm - 10SM
01:53
Clear
55°F / 13°C 43°F / 6°C 63% 30.04 in
(1017 mb)
NW 4.6 mph
(NW 7 kph)
- 10SM
00:53
Clear
55°F / 13°C 43°F / 6°C 63% 30.04 in
(1017 mb)
NW 5.8 mph
(NW 9 kph)
- 10SM
Time Weather Temperature Dewpoint Humidity Pressure Winds Precip Visibility


Weather for websites

WeatherForYou.com, LLC is not responsible for any damages or problems caused by this service. Current weather conditions are obtained from the closest station including government and personal stations which may have varying degrees of accuracy. Weather forecasts are derived from the NOAA NDFD. Like all things, this site belongs to Jesus Christ... He just trusts me to maintain it. If you have any questions or comments email webmaster@weatherforyou.com

Copyright © 2014, WeatherForYou.com LLC. All rights reserved.